Bennington, VT

1:03 AM EST on February 18, 2018 (GMT -0500)
Morse State

Weather History for KDDH - February, 2014

Change the Weather History Date:

Sunday, February 9, 2014

  Actual Average Record
Temperature  
Mean Temperature 14 °F 24 °F  
Max Temperature 24 °F 33 °F 32 °F (2016)
Min Temperature 4 °F 14 °F 1 °F (2018)
Degree Days  
Heating Degree Days 51 41  
Month to date heating degree days 345 378  
Since 1 July heating degree days 4415 4509  
Cooling Degree Days 0 0  
Month to date cooling degree days 0 0  
Year to date cooling degree days 0 0  
Moisture  
Dew Point 10 °F    
Average Humidity 67    
Maximum Humidity 88    
Minimum Humidity 46    
Precipitation  
Precipitation 0.08 in 0.07 in 0.53 in (2017)
Month to date precipitation 0.79 0.60  
Year to date precipitation 3.71 3.35  
Sea Level Pressure  
Sea Level Pressure 30.03 in    
Wind  
Wind Speed 0 mph (NE)    
Max Wind Speed 8 mph    
Max Gust Speed 11 mph    
Visibility 5 miles    
Events Snow    
T = Trace of Precipitation, MM = Missing Value Source: NWS Daily Summary

Daily Weather History Graph

Daily Weather History Graph

Search for Another Location

Airport or City:

Trip Planner

Search our weather history database for the weather conditions in past years. The results will help you decide how hot, cold, wet, or windy it might be!

Date:

Astronomy

Feb. 09, 2014 Rise Set
Actual Time 6:58 AM EST 5:16 PM EST
Civil Twilight 6:28 AM EST 5:46 PM EST
Nautical Twilight 5:55 AM EST 6:19 PM EST
Astronomical Twilight 5:22 AM EST 6:52 PM EST
Moon 12:51 PM EST (2/9) 3:03 AM EST (2/9)
Length of Visible Light 11h 17m
Length of Day
10h 18m
Waxing Gibbous, 77% of the Moon is Illuminated
Feb 9
Waxing Gibbous
Feb 14
Full
Feb 22
Last Quarter
Mar 1
New
Mar 8
First Quarter

Hourly Weather History & Observations

Time (EST) Temp. Windchill Dew Point Humidity Pressure Visibility Wind Dir Wind Speed Gust Speed Precip Events Conditions
12:54 AM 12.9 °F - 3.9 °F 67% 30.16 in 10.0 mi Calm Calm - N/A   Overcast
1:54 AM 14.0 °F - 3.0 °F 62% 30.16 in 10.0 mi Calm Calm - N/A   Overcast
2:54 AM 14.0 °F - 3.0 °F 62% 30.16 in 10.0 mi Calm Calm - N/A   Overcast
3:54 AM 12.9 °F - 3.9 °F 67% 30.16 in 10.0 mi Calm Calm - N/A   Overcast
4:54 AM 12.9 °F - 3.9 °F 67% 30.17 in 10.0 mi Calm Calm - N/A   Overcast
5:33 AM 12.9 °F - 5.0 °F 71% 30.12 in 2.5 mi Calm Calm - 0.00 in Snow Light Snow
5:47 AM 12.0 °F - 5.0 °F 73% 30.12 in 4.0 mi Calm Calm - 0.00 in Snow Light Snow
5:54 AM 12.0 °F - 6.1 °F 77% 30.17 in 6.0 mi Calm Calm - 0.00 in   Haze
6:20 AM 10.0 °F - 5.0 °F 80% 30.12 in 4.0 mi Calm Calm - 0.00 in Snow Light Snow
6:54 AM 7.0 °F - 3.0 °F 84% 30.17 in 8.0 mi Calm Calm - 0.00 in   Scattered Clouds
7:54 AM 6.1 °F - 1.9 °F 83% 30.18 in 9.0 mi Calm Calm - N/A   Clear
8:54 AM 12.9 °F - 6.1 °F 74% 30.17 in 10.0 mi Calm Calm - N/A   Clear
9:54 AM 17.1 °F - 7.0 °F 65% 30.17 in 10.0 mi Calm Calm - N/A   Clear
10:54 AM 19.0 °F - 8.1 °F 62% 30.15 in 10.0 mi Calm Calm - N/A   Partly Cloudy
11:54 AM 19.9 °F - 7.0 °F 57% 30.12 in 10.0 mi Calm Calm - N/A   Clear
12:54 PM 21.0 °F 16.2 °F 6.1 °F 53% 30.06 in 10.0 mi SSE 3.5 mph - N/A   Clear
1:54 PM 21.9 °F - 6.1 °F 51% 30.03 in 10.0 mi Calm Calm - N/A   Partly Cloudy
2:54 PM 24.1 °F 18.2 °F 6.1 °F 46% 29.99 in 10.0 mi North 4.6 mph - N/A   Mostly Cloudy
3:54 PM 23.0 °F - 7.0 °F 50% 29.99 in 10.0 mi Calm Calm - N/A   Overcast
4:51 PM 21.2 °F - 12.2 °F 68% 29.96 in 1.8 mi Calm Calm - 0.00 in Snow Light Snow
4:52 PM 21.0 °F - 12.0 °F 68% 30.00 in 1.8 mi Calm Calm - 0.00 in Snow Light Snow
5:29 PM 21.0 °F - 14.0 °F 74% 29.95 in 2.0 mi Calm Calm - 0.00 in Snow Light Snow
5:36 PM 21.0 °F - 15.1 °F 78% 29.95 in 1.8 mi Calm Calm - 0.01 in Snow Light Snow
5:54 PM 19.9 °F - 15.1 °F 81% 30.00 in 1.5 mi Calm Calm - 0.01 in Snow Light Snow
6:54 PM 19.9 °F - 16.0 °F 85% 29.99 in 1.0 mi Calm Calm - 0.02 in Snow Light Snow
7:09 PM 19.9 °F 14.9 °F 16.0 °F 85% 29.92 in 1.2 mi NNE 3.5 mph - 0.01 in Snow Light Snow
7:54 PM 19.9 °F - 16.0 °F 85% 29.97 in 1.8 mi Calm Calm - 0.02 in Snow Light Snow
8:47 PM 19.9 °F - 15.1 °F 81% 29.91 in 2.0 mi Calm Calm - 0.01 in Snow Light Snow
8:54 PM 19.9 °F - 15.1 °F 81% 29.96 in 1.8 mi Calm Calm - 0.01 in Snow Light Snow
9:00 PM 19.9 °F - 16.0 °F 85% 29.91 in 2.0 mi Calm Calm - 0.00 in Snow Light Snow
9:13 PM 19.9 °F - 16.0 °F 85% 29.91 in 3.0 mi Calm Calm - 0.00 in Snow Light Snow
9:23 PM 19.9 °F - 16.0 °F 85% 29.91 in 1.8 mi Calm Calm - 0.00 in Snow Light Snow
9:54 PM 19.9 °F - 16.0 °F 85% 29.95 in 2.0 mi Calm Calm - 0.00 in Snow Light Snow
10:02 PM 19.0 °F - 15.1 °F 85% 29.90 in 1.5 mi Calm Calm - 0.00 in Snow Light Snow
10:54 PM 19.0 °F - 16.0 °F 88% 29.94 in 2.0 mi Calm Calm - 0.01 in Snow Light Snow
11:14 PM 19.9 °F - 16.0 °F 85% 29.90 in 1.2 mi Calm Calm - 0.01 in Snow Light Snow
11:47 PM 19.0 °F - 15.1 °F 85% 29.90 in 2.0 mi Calm Calm - 0.01 in Snow Light Snow
11:54 PM 19.0 °F - 16.0 °F 88% 29.94 in 2.0 mi Calm Calm - 0.01 in Snow Light Snow